Home   Weather   Famagusta   Past weeks

Flag for Cyprus Past Weather in Famagusta, Northern Cyprus, Cyprus — Yesterday and Last 2 Weeks

Now
77 °F

Passing clouds.


Feels Like: 79 °F
Forecast: 64 / 76 °F
Wind: 6 mph from Southeast

Location: Larnaca Airport

Current Time: Apr 30, 2017 at 4:07:24 pm

Latest Report: Apr 30, 2017 at 3:30 pm


Visibility: N/A

Pressure: 29.80 "Hg

Humidity: 54%

Dew Point: 59 °F

Location of FamagustaLocation

Past Weather in Famagusta — Graph

°F

Famagusta Temperature Yesterday

Maximum temperature yesterday: 79 °F (at 4:30 pm)
Minimum temperature yesterday: 57 °F (at 4:30 am)
Average temperature yesterday: 69 °F

High & Low Weather Summary for the Past Weeks

 TemperatureHumidityPressure
High82 °F (Apr 22, 2:30 pm)100% (Apr 15, 9:00 pm)30.12 "Hg (Apr 15, 9:00 pm)
Low50 °F (Apr 24, 5:00 am)12% (Apr 27, 8:30 am)29.65 "Hg (Apr 23, 12:00 am)
Average66 °F64%29.98 "Hg
* Reported Apr 15 3:00 pm — Apr 30 3:00 pm, Famagusta, Weather by CustomWeather, © 2017

Note: Actual official high and low records may vary slightly from our data, if they occured in-between our weather recording intervals... More about our weather records

Advertising

Famagusta Weather History for the Previous 24 Hours

Scroll right to see more
 ConditionsComfort  
Time TempWeatherWind HumidityBarometerVisibility
3:00 pm
Sun, Apr 30
73 °FPassing clouds.6 mph65%29.83 "HgN/A
2:30 pm75 °FPassing clouds.6 mph57%29.83 "HgN/A
2:00 pm75 °FPassing clouds.7 mph54%29.83 "HgN/A
1:30 pm75 °FSunny.9 mph57%29.83 "Hg10 mi
1:00 pm77 °FSunny.9 mph47%29.86 "Hg10 mi
12:30 pm77 °FSunny.7 mph51%29.86 "Hg10 mi
12:00 pm77 °FSunny.6 mph51%29.86 "Hg10 mi
11:30 am77 °FSunny.5 mph47%29.86 "Hg10 mi
11:00 am73 °FPassing clouds.6 mph57%29.89 "HgN/A
10:30 am73 °FSunny.8 mph57%29.89 "Hg10 mi
10:00 am73 °FSunny.7 mph57%29.89 "Hg10 mi
9:30 am73 °FPassing clouds.6 mph47%29.89 "HgN/A
9:00 am73 °FSunny.5 mph44%29.89 "Hg10 mi
8:30 am75 °FPassing clouds.3 mph31%29.89 "HgN/A
8:00 am72 °FSunny.No wind41%29.86 "Hg10 mi
7:30 am66 °FSunny.2 mph49%29.86 "Hg10 mi
7:00 am63 °FSunny.2 mph52%29.86 "Hg10 mi
6:30 am61 °FSunny.5 mph55%29.86 "Hg10 mi
6:00 am59 °FSunny.2 mph59%29.86 "Hg10 mi
5:30 am61 °FClear.3 mph55%29.86 "Hg10 mi
5:00 am61 °FClear.5 mph52%29.83 "Hg10 mi
4:30 am59 °FClear.3 mph59%29.86 "Hg10 mi
4:00 am61 °FClear.3 mph52%29.83 "Hg10 mi
3:30 am61 °FClear.5 mph55%29.86 "Hg10 mi
3:00 am61 °FClear.5 mph55%29.86 "Hg10 mi
2:30 am61 °FClear.3 mph55%29.86 "Hg10 mi
2:00 am61 °FClear.1 mph55%29.86 "Hg10 mi
1:30 am63 °FClear.1 mph56%29.86 "Hg10 mi
1:00 am64 °FClear.5 mph52%29.86 "Hg10 mi
12:30 am64 °FPassing clouds.5 mph52%29.86 "HgN/A
12:00 am63 °FClear.3 mph59%29.89 "Hg10 mi
11:30 pm
Sat, Apr 29
64 °FClear.2 mph78%29.89 "Hg10 mi
10:30 pm66 °FClear.5 mph73%29.89 "Hg10 mi
10:00 pm68 °FClear.7 mph73%29.89 "Hg10 mi
9:30 pm68 °FClear.6 mph64%29.89 "Hg10 mi
9:00 pm70 °FClear.2 mph50%29.86 "Hg10 mi
8:30 pm70 °FClear.6 mph46%29.86 "Hg10 mi
8:00 pm72 °FClear.6 mph47%29.86 "Hg10 mi
7:30 pm73 °FClear.6 mph41%29.86 "Hg10 mi
7:00 pm73 °FSunny.6 mph47%29.86 "Hg10 mi
6:30 pm75 °FSunny.8 mph41%29.86 "Hg10 mi
6:00 pm77 °FSunny.8 mph36%29.86 "Hg10 mi
5:30 pm79 °FSunny.8 mph37%29.89 "Hg10 mi
5:00 pm79 °FSunny.8 mph39%29.89 "Hg10 mi
4:30 pm79 °FSunny.8 mph42%29.89 "Hg10 mi
Weather by CustomWeather, © 2017

See weather overviewHow to use our weather pages